Flag for France Weather past 2 weeks in Istres, France

Now
68 °F

Clear.


Feels Like: 68 °F
Forecast: 53 / 67 °F
Wind: 25 mph from North

Location: Istres Airport

Current Time: Mar 28, 2015 at 4:15:16 PM

Latest Report: Mar 28, 2015 at 4:00 PM


Visibility: N/A

Pressure: 30.04 "Hg

Humidity: 43%

Dew point: 45 °F

Location of IstresLocation

Historic Weather in Istres — Graph

°F

Istres temperature yesterday

Maximum temperature yesterday: 63 °F (at 4:00 PM)
Minimum temperature yesterday: 48 °F (at 2:30 AM)
Average temperature yesterday: 55 °F

Past Weeks' High & Low Weather Summary

 TemperatureHumidityPressure
High66 °F (Mar 18, 1:30 PM)100% (Mar 25, 8:00 AM)30.24 "Hg (Mar 25, 8:00 AM)
Low45 °F (Mar 14, 5:30 AM)25% (Mar 27, 4:00 PM)29.53 "Hg (Mar 25, 6:30 AM)
Average52 °F71%29.98 "Hg
* Reported Mar 13 3:00 PM — Mar 28 3:00 PM, Istres, Weather by CustomWeather, © 2015

Note: Actual official high and low records may vary slightly from our data, if they occured in-between our weather recording intervals... More about our weather records

Advertising

Istres weather history for previous 24 hours

 ConditionsComfort  
Time TempWeatherWind HumidityBarometerVisibility
3:00 PM
Sat, Mar 28
66 °FClear.22 mph43%30.07 "HgN/A
2:30 PM66 °FClear.28 mph43%30.07 "HgN/A
2:00 PM66 °FClear.26 mph40%30.07 "HgN/A
1:30 PM66 °FClear.26 mph43%30.09 "HgN/A
1:00 PM64 °FClear.25 mph43%30.09 "HgN/A
12:30 PM63 °FClear.24 mph45%30.09 "HgN/A
12:00 PM63 °FClear.25 mph42%30.09 "HgN/A
11:30 AM59 °FClear.31 mph45%30.09 "HgN/A
11:00 AM59 °FClear.33 mph42%30.09 "HgN/A
10:30 AM57 °FClear.35 mph41%30.09 "HgN/A
10:00 AM57 °FClear.36 mph41%30.09 "HgN/A
9:30 AM55 °FClear.36 mph44%30.09 "HgN/A
9:00 AM54 °FClear.32 mph47%30.09 "HgN/A
8:30 AM52 °FClear.33 mph50%30.09 "HgN/A
8:00 AM52 °FClear.32 mph50%30.09 "HgN/A
7:30 AM50 °FClear.33 mph54%30.09 "HgN/A
7:00 AM50 °FClear.26 mph54%30.12 "HgN/A
6:30 AM48 °FClear.24 mph58%30.09 "HgN/A
6:00 AM48 °FClear.22 mph58%30.09 "HgN/A
5:30 AM48 °FClear.16 mph58%30.09 "HgN/A
5:00 AM50 °FClear.15 mph54%30.09 "HgN/A
4:30 AM48 °FClear.16 mph58%30.09 "HgN/A
4:00 AM50 °FClear.17 mph54%30.09 "HgN/A
3:30 AM50 °FClear.20 mph54%30.09 "HgN/A
3:00 AM50 °FClear.20 mph50%30.09 "HgN/A
2:30 AM52 °FClear.24 mph50%30.09 "HgN/A
2:00 AM52 °FClear.32 mph50%30.09 "HgN/A
1:30 AM52 °FClear.36 mph50%30.09 "HgN/A
1:00 AM52 °FClear.36 mph47%30.07 "HgN/A
12:30 AM54 °FClear.30 mph44%30.07 "HgN/A
12:00 AM54 °FClear.31 mph41%30.07 "HgN/A
11:30 PM
Fri, Mar 27
54 °FClear.31 mph41%30.09 "HgN/A
11:00 PM54 °FClear.25 mph41%30.09 "HgN/A
10:30 PM54 °FClear.25 mph41%30.07 "HgN/A
10:00 PM55 °FClear.29 mph36%30.07 "HgN/A
9:30 PM55 °FClear.28 mph36%30.09 "HgN/A
9:00 PM55 °FClear.28 mph36%30.09 "HgN/A
8:30 PM55 °FClear.26 mph36%30.07 "HgN/A
8:00 PM57 °FClear.28 mph33%30.07 "HgN/A
7:30 PM57 °FClear.31 mph31%30.07 "HgN/A
7:00 PM57 °FClear.29 mph33%30.04 "HgN/A
6:30 PM59 °FClear.31 mph29%30.04 "HgN/A
6:00 PM59 °FClear.31 mph29%30.04 "HgN/A
5:30 PM61 °FClear.31 mph29%30.04 "HgN/A
5:00 PM61 °FClear.36 mph27%30.01 "HgN/A
4:30 PM61 °FClear.39 mph27%30.01 "HgN/A
4:00 PM63 °FClear.43 mph25%30.01 "HgN/A
Weather by CustomWeather, © 2015

See weather overviewHow to use our weather pages